When you browse on this site, cookies collect data to enhance your experience and personalize the content and advertising you see.
Visit our Privacy Policy to learn more. By continuing to use the site, you agree to this use of cookies and data.
  • în România
  • Lista ţărilor
  • Pe 7 zile
  • Temperatura apei
  • Hartă satelitară
  • Meteo pe hartă
  • Widget-uri
  • user-avatar
    Intrare

    Meteo pe oră la Gudalur

    Astăzi, 25 Aprilie, Joi

    Timp Temperatura Precipitaţii Vânt Presiune Umiditate
    00:00 +25°C° 0 mm 0 m/s 714 mmHg 66%
    01:00 +25°C° 0 mm 0 m/s 714 mmHg 68%
    02:00 +25°C° 0 mm 0 m/s 713 mmHg 69%
    03:00 +24°C° 0 mm 0 m/s 713 mmHg 70%
    04:00 +24°C° 0 mm 0 m/s 713 mmHg 71%
    05:00 +24°C° 0 mm 0 m/s 713 mmHg 71%
    06:00 +25°C° 0 mm 0 m/s 714 mmHg 66%
    07:00 +27°C° 0 mm 0 m/s 715 mmHg 60%
    08:00 +29°C° 0 mm 0 m/s 715 mmHg 55%
    09:00 +33°C° 0 mm 1 m/s 715 mmHg 49%
    10:00 +34°C° 0 mm 1 m/s 716 mmHg 42%
    11:00 +36°C° 0 mm 1 m/s 716 mmHg 36%
    12:00 +37°C° 0 mm 2 m/s 715 mmHg 35%
    13:00 +37°C° 0 mm 2 m/s 714 mmHg 33%
    14:00 +37°C° 0 mm 2 m/s 714 mmHg 32%
    15:00 +36°C° 0.2 mm 2 m/s 714 mmHg 37%
    16:00 +34°C° 0.2 mm 1 m/s 713 mmHg 41%
    17:00 +33°C° 0.2 mm 1 m/s 713 mmHg 46%
    18:00 +32°C° 0.1 mm 1 m/s 713 mmHg 54%
    19:00 +30°C° 0.1 mm 1 m/s 714 mmHg 61%
    20:00 +29°C° 0.1 mm 1 m/s 714 mmHg 69%
    21:00 +26°C° 0 mm 0 m/s 714 mmHg 70%
    22:00 +26°C° 0 mm 0 m/s 714 mmHg 72%
    23:00 +25°C° 0 mm 0 m/s 714 mmHg 74%

    Mâine, 26 Aprilie, Vineri

    Timp Temperatura Precipitaţii Vânt Presiune Umiditate
    00:00 +25°C° 0 mm 0 m/s 714 mmHg 74%
    01:00 +25°C° 0 mm 0 m/s 713 mmHg 75%
    02:00 +26°C° 0 mm 1 m/s 713 mmHg 75%
    03:00 +26°C° 0 mm 1 m/s 712 mmHg 75%
    04:00 +26°C° 0 mm 1 m/s 712 mmHg 75%
    05:00 +26°C° 0 mm 1 m/s 712 mmHg 75%
    06:00 +25°C° 0 mm 0 m/s 713 mmHg 69%
    07:00 +27°C° 0 mm 0 m/s 713 mmHg 62%
    08:00 +29°C° 0 mm 0 m/s 714 mmHg 55%
    09:00 +33°C° 0 mm 1 m/s 714 mmHg 47%
    10:00 +34°C° 0 mm 1 m/s 714 mmHg 40%
    11:00 +36°C° 0 mm 1 m/s 714 mmHg 32%
    12:00 +38°C° 0 mm 2 m/s 714 mmHg 29%
    13:00 +38°C° 0 mm 2 m/s 713 mmHg 27%
    14:00 +39°C° 0 mm 3 m/s 712 mmHg 25%
    15:00 +38°C° 0 mm 2 m/s 712 mmHg 30%
    16:00 +37°C° 0 mm 2 m/s 712 mmHg 36%
    17:00 +36°C° 0 mm 2 m/s 712 mmHg 41%
    18:00 +33°C° 0.2 mm 1 m/s 712 mmHg 49%
    19:00 +31°C° 0.2 mm 1 m/s 713 mmHg 57%
    20:00 +29°C° 0.2 mm 1 m/s 713 mmHg 66%
    21:00 +29°C° 0 mm 1 m/s 713 mmHg 69%
    22:00 +28°C° 0 mm 1 m/s 713 mmHg 72%
    23:00 +28°C° 0 mm 1 m/s 713 mmHg 75%

    Poimâine, 27 Aprilie, Sâmbătă

    Timp Temperatura Precipitaţii Vânt Presiune Umiditate
    00:00 +28°C° 0 mm 1 m/s 713 mmHg 75%
    01:00 +28°C° 0 mm 1 m/s 712 mmHg 74%
    02:00 +27°C° 0 mm 1 m/s 712 mmHg 74%
    03:00 +27°C° 0 mm 1 m/s 712 mmHg 74%
    04:00 +27°C° 0 mm 1 m/s 712 mmHg 73%
    05:00 +25°C° 0 mm 0 m/s 712 mmHg 73%
    06:00 +26°C° 0 mm 0 m/s 712 mmHg 66%
    07:00 +28°C° 0 mm 0 m/s 713 mmHg 60%
    08:00 +30°C° 0 mm 0 m/s 714 mmHg 53%
    09:00 +34°C° 0 mm 1 m/s 714 mmHg 46%
    10:00 +36°C° 0 mm 1 m/s 714 mmHg 39%
    11:00 +39°C° 0 mm 2 m/s 714 mmHg 32%
    12:00 +39°C° 0 mm 2 m/s 713 mmHg 30%
    13:00 +40°C° 0 mm 3 m/s 712 mmHg 28%
    14:00 +41°C° 0 mm 4 m/s 711 mmHg 26%
    15:00 +39°C° 0.1 mm 3 m/s 711 mmHg 31%
    16:00 +37°C° 0.1 mm 2 m/s 711 mmHg 37%
    17:00 +36°C° 0.1 mm 2 m/s 711 mmHg 42%
    18:00 +33°C° 0.2 mm 1 m/s 711 mmHg 50%
    19:00 +32°C° 0.2 mm 1 m/s 712 mmHg 58%
    20:00 +30°C° 0.2 mm 1 m/s 712 mmHg 66%
    21:00 +30°C° 0.1 mm 1 m/s 712 mmHg 70%
    22:00 +27°C° 0.1 mm 0 m/s 712 mmHg 74%
    23:00 +27°C° 0.1 mm 0 m/s 712 mmHg 77%

    28 Aprilie, Duminică

    Timp Temperatura Precipitaţii Vânt Presiune Umiditate
    00:00 +27°C° 0.4 mm 0 m/s 712 mmHg 79%
    01:00 +26°C° 0.4 mm 0 m/s 711 mmHg 80%
    02:00 +26°C° 0.4 mm 0 m/s 711 mmHg 81%
    03:00 +26°C° 0.1 mm 0 m/s 711 mmHg 82%
    04:00 +27°C° 0.1 mm 1 m/s 711 mmHg 83%
    05:00 +27°C° 0.1 mm 1 m/s 711 mmHg 84%
    06:00 +28°C° 0 mm 1 m/s 712 mmHg 80%
    07:00 +29°C° 0 mm 1 m/s 712 mmHg 76%
    08:00 +30°C° 0 mm 1 m/s 713 mmHg 73%
    09:00 +32°C° 0 mm 1 m/s 713 mmHg 66%
    10:00 +33°C° 0 mm 1 m/s 713 mmHg 58%
    11:00 +35°C° 0 mm 1 m/s 713 mmHg 51%
    12:00 +35°C° 0.5 mm 1 m/s 712 mmHg 48%
    13:00 +36°C° 0.5 mm 1 m/s 712 mmHg 45%
    14:00 +36°C° 0.5 mm 1 m/s 711 mmHg 42%
    15:00 +34°C° 0.3 mm 1 m/s 711 mmHg 49%
    16:00 +33°C° 0.3 mm 1 m/s 710 mmHg 57%
    17:00 +31°C° 0.3 mm 2 m/s 710 mmHg 64%
    18:00 +30°C° 0.1 mm 2 m/s 711 mmHg 70%
    19:00 +29°C° 0.1 mm 2 m/s 711 mmHg 76%
    20:00 +29°C° 0.1 mm 2 m/s 712 mmHg 82%
    21:00 +29°C° 0.2 mm 3 m/s 712 mmHg 83%
    22:00 +28°C° 0.2 mm 3 m/s 712 mmHg 84%
    23:00 +28°C° 0.2 mm 3 m/s 712 mmHg 85%

    29 Aprilie, Luni

    Timp Temperatura Precipitaţii Vânt Presiune Umiditate
    00:00 +28°C° 0.3 mm 3 m/s 711 mmHg 85%
    01:00 +28°C° 0.3 mm 3 m/s 710 mmHg 84%
    02:00 +28°C° 0.3 mm 4 m/s 709 mmHg 84%
    03:00 +28°C° 0.3 mm 4 m/s 709 mmHg 85%
    04:00 +28°C° 0.3 mm 4 m/s 709 mmHg 85%
    05:00 +27°C° 0.3 mm 4 m/s 709 mmHg 85%
    06:00 +27°C° 1.1 mm 5 m/s 709 mmHg 85%
    07:00 +27°C° 1.1 mm 5 m/s 709 mmHg 86%
    08:00 +27°C° 1.1 mm 5 m/s 710 mmHg 86%
    09:00 +27°C° 2.3 mm 6 m/s 709 mmHg 86%
    10:00 +27°C° 2.3 mm 6 m/s 709 mmHg 85%
    11:00 +27°C° 2.3 mm 7 m/s 709 mmHg 85%
    12:00 +27°C° 4.5 mm 7 m/s 708 mmHg 86%
    13:00 +27°C° 4.5 mm 7 m/s 707 mmHg 86%
    14:00 +27°C° 4.5 mm 7 m/s 706 mmHg 87%
    15:00 +27°C° 4.7 mm 7 m/s 706 mmHg 88%
    16:00 +27°C° 4.7 mm 7 m/s 706 mmHg 88%
    17:00 +27°C° 4.7 mm 7 m/s 706 mmHg 89%
    18:00 +27°C° 3.8 mm 7 m/s 706 mmHg 89%
    19:00 +27°C° 3.8 mm 7 m/s 707 mmHg 89%
    20:00 +27°C° 3.8 mm 7 m/s 707 mmHg 90%
    21:00 +27°C° 4.9 mm 7 m/s 707 mmHg 89%
    22:00 +27°C° 4.9 mm 8 m/s 707 mmHg 89%
    23:00 +27°C° 4.9 mm 8 m/s 707 mmHg 89%

    30 Aprilie, Marţi

    Timp Temperatura Precipitaţii Vânt Presiune Umiditate
    00:00 +26°C° 4.7 mm 8 m/s 707 mmHg 90%
    01:00 +26°C° 4.7 mm 8 m/s 706 mmHg 90%
    02:00 +26°C° 4.7 mm 9 m/s 706 mmHg 90%
    03:00 +26°C° 3 mm 8 m/s 706 mmHg 90%
    04:00 +26°C° 3 mm 8 m/s 706 mmHg 90%
    05:00 +26°C° 3 mm 8 m/s 706 mmHg 90%
    06:00 +26°C° 3 mm 8 m/s 707 mmHg 90%
    07:00 +26°C° 3 mm 8 m/s 708 mmHg 90%
    08:00 +27°C° 3 mm 7 m/s 708 mmHg 90%
    09:00 +27°C° 2.8 mm 7 m/s 708 mmHg 90%
    10:00 +27°C° 2.8 mm 7 m/s 708 mmHg 89%
    11:00 +27°C° 2.8 mm 7 m/s 709 mmHg 89%
    12:00 +27°C° 3.8 mm 7 m/s 708 mmHg 89%
    13:00 +27°C° 3.8 mm 6 m/s 708 mmHg 90%
    14:00 +27°C° 3.8 mm 6 m/s 707 mmHg 90%
    15:00 +26°C° 4.3 mm 6 m/s 708 mmHg 90%
    16:00 +26°C° 4.3 mm 6 m/s 708 mmHg 90%
    17:00 +26°C° 4.3 mm 6 m/s 708 mmHg 90%
    18:00 +26°C° 2.9 mm 5 m/s 709 mmHg 90%
    19:00 +26°C° 2.9 mm 5 m/s 710 mmHg 91%
    20:00 +26°C° 2.9 mm 5 m/s 710 mmHg 91%
    21:00 +26°C° 2.2 mm 5 m/s 710 mmHg 91%
    22:00 +26°C° 2.2 mm 5 m/s 710 mmHg 91%
    23:00 +26°C° 2.2 mm 5 m/s 710 mmHg 91%
    Arată mai mult